N0XUT Weather Reports


Display with metric or nautical units.
time (UTC)temp
F
wind
direction
speed
MPH
gust
MPH
rain 1hr
in
rain 24hr
in
rain mn
in
humidity
%
barometer
mb
20260508125959 51 98 2.0 3.0 0.00 0.00 0.00 48 1009.2
20260508124459 50 63 2.0 3.0 0.00 0.00 0.00 50 1009.1
20260508122959 49 104 2.0 3.0 0.00 0.00 0.00 51 1009.1
20260508114459 44 143 0.0 3.0 0.00 0.00 0.00 58 1009.1
20260508112958 44 84 0.0 2.0 0.00 0.00 0.00 58 1009.1
20260508111459 43 82 1.0 3.0 0.00 0.00 0.00 57 1009.1
20260508110000 43 86 1.0 3.0 0.00 0.00 0.00 58 1009.0
20260508104459 43 76 0.0 2.0 0.00 0.00 0.00 58 1009.0
20260508102958 43 114 0.0 0.0 0.00 0.00 0.00 58 1008.8
20260508101459 44 132 0.0 2.0 0.00 0.00 0.00 55 1009.0
20260508094459 46 90 0.0 2.0 0.00 0.00 0.00 51 1009.0
20260508092959 46 88 2.0 6.0 0.00 0.00 0.00 50 1008.8
20260508085959 46 90 0.0 3.0 0.00 0.00 0.00 50 1008.9
20260508084459 46 79 0.0 3.0 0.00 0.00 0.00 49 1009.1
20260508082959 46 92 1.0 2.0 0.00 0.00 0.00 49 1009.3
20260508081459 47 114 0.0 3.0 0.00 0.00 0.00 47 1009.2
20260508075959 47 90 1.0 3.0 0.00 0.00 0.00 47 1009.3
20260508071459 48 95 2.0 6.0 0.00 0.00 0.00 44 1009.8
20260508065959 49 90 1.0 7.0 0.00 0.00 0.00 44 1010.0
20260508064500 49 52 2.0 7.0 0.00 0.00 0.00 42 1010.1
20260508063000 50 92 2.0 10.0 0.00 0.00 0.00 41 1010.3
20260508055959 50 88 2.0 6.0 0.00 0.00 0.00 41 1010.7
20260508052959 50 92 2.0 6.0 0.00 0.00 0.00 40 1010.7
20260508051500 51 76 2.0 7.0 0.00 0.00 0.00 40 1010.7
20260508045959 51 74 3.0 9.0 0.00 0.00 0.00 40 1010.6
20260508044459 51 51 3.0 7.0 0.00 0.00 0.00 41 1010.6
20260508042959 51 32 3.0 7.0 0.00 0.00 0.00 41 1010.7
20260508041459 52 33 3.0 7.0 0.00 0.00 0.00 40 1010.6
20260508034459 52 32 2.0 3.0 0.00 0.00 0.00 41 1010.6
20260508033000 52 25 2.0 3.0 0.00 0.00 0.00 42 1010.3
20260508031500 53 34 2.0 3.0 0.00 0.00 0.00 42 1010.2
20260508025959 53 31 1.0 3.0 0.00 0.00 0.00 41 1010.2
20260508024459 53 31 1.0 2.0 0.00 0.00 0.00 42 1009.9
20260508023000 55 31 0.0 2.0 0.00 0.00 0.00 41 1009.8
20260508021500 55 31 1.0 2.0 0.00 0.00 0.00 37 1009.5
20260508014459 57 17 2.0 3.0 0.00 0.00 0.00 37 1009.1
20260508012959 58 355 1.0 2.0 0.00 0.00 0.00 36 1009.0
20260508011459 60 347 1.0 3.0 0.00 0.00 0.00 32 1008.8
20260508010000 61 330 2.0 6.0 0.00 0.00 0.00 31 1008.7
20260508004500 62 351 3.0 6.0 0.00 0.00 0.00 30 1008.6
20260508003000 63 327 2.0 8.0 0.00 0.00 0.00 29 1008.6
20260508001459 64 35 2.0 6.0 0.00 0.00 0.00 28 1008.4
20260508000001 64 290 1.0 9.0 0.00 0.00 0.00 27 1008.4
20260507234459 65 304 5.0 10.0 0.00 0.00 0.00 28 1008.4
20260507233000 65 323 3.0 12.0 0.00 0.00 0.00 27 1008.5
20260507225959 65 321 5.0 14.0 0.00 0.00 0.00 27 1008.6
20260507224459 64 245 5.0 9.0 0.00 0.00 0.00 29 1008.7
20260507221502 65 322 8.0 12.0 0.00 0.00 0.00 27 1008.8
20260507215959 65 295 6.0 13.0 0.00 0.00 0.00 30 1008.8
20260507214459 63 328 5.0 13.0 0.00 0.00 0.00 29 1008.9
20260507211459 65 243 9.0 15.0 0.00 0.00 0.00 31 1008.9
20260507210000 64 248 6.0 13.0 0.00 0.00 0.00 32 1009.0
20260507204500 64 301 6.0 16.0 0.00 0.00 0.00 31 1009.2
20260507203000 63 271 7.0 14.0 0.00 0.00 0.00 30 1009.3
20260507195959 62 271 2.0 13.0 0.00 0.00 0.00 33 1009.5
20260507194500 62 279 7.0 14.0 0.00 0.00 0.00 32 1009.6
20260507192959 62 277 7.0 12.0 0.00 0.00 0.00 36 1009.7
20260507191500 61 246 6.0 12.0 0.00 0.00 0.00 34 1009.8
20260507190001 61 291 5.0 15.0 0.00 0.00 0.00 35 1009.9
20260507184500 60 275 5.0 14.0 0.00 0.00 0.00 34 1010.0
20260507183000 60 267 5.0 15.0 0.00 0.00 0.00 35 1010.1
20260507181500 60 334 5.0 16.0 0.00 0.00 0.00 33 1010.1
20260507180000 61 262 6.0 16.0 0.00 0.00 0.00 35 1010.1
20260507174459 61 268 7.0 18.0 0.00 0.00 0.00 38 1010.2
20260507173000 59 285 7.0 21.0 0.00 0.00 0.00 39 1010.5
20260507171500 60 261 6.0 18.0 0.00 0.00 0.00 39 1010.6
20260507164500 59 275 7.0 15.0 0.00 0.00 0.00 43 1011.0
20260507163000 58 266 7.0 17.0 0.00 0.00 0.00 45 1011.2
20260507161500 57 238 8.0 18.0 0.00 0.00 0.00 49 1011.2
20260507160000 56 231 7.0 20.0 0.00 0.00 0.00 49 1011.1
20260507154500 56 237 12.0 20.0 0.00 0.00 0.00 46 1011.3
20260507153000 56 244 9.0 20.0 0.00 0.00 0.00 48 1011.4
20260507151500 55 227 7.0 16.0 0.00 0.00 0.00 49 1011.5
20260507150000 54 239 2.0 6.0 0.00 0.00 0.00 49 1011.6
20260507144500 52 2 3.0 7.0 0.00 0.00 0.00 51 1011.6
20260507143000 52 257 3.0 6.0 0.00 0.00 0.00 51 1011.8
20260507140000 50 60 3.0 5.0 0.00 0.00 0.00 54 1012.4
20260507134500 47 38 2.0 6.0 0.00 0.00 0.00 60 1012.6
20260507133000 47 37 2.0 5.0 0.00 0.00 0.00 61 1012.6
20260507131500 46 27 4.0 9.0 0.00 0.00 0.00 61 1012.6